Meteo pe oră la Alleppey

Astăzi, 20 Ianuarie, Miercuri

Timp Temperatura Precipitaţii Vânt Presiune Umiditate
00:00 +25°C° 0 mm 1 m/s 757 mmHg 87%
01:00 +25°C° 0 mm 1 m/s 757 mmHg 87%
02:00 +25°C° 0 mm 1 m/s 757 mmHg 88%
03:00 +24°C° 0 mm 2 m/s 757 mmHg 89%
04:00 +24°C° 0 mm 2 m/s 757 mmHg 89%
05:00 +24°C° 0 mm 1 m/s 757 mmHg 91%
06:00 +25°C° 0 mm 2 m/s 758 mmHg 86%
07:00 +26°C° 0 mm 2 m/s 758 mmHg 81%
08:00 +27°C° 0 mm 2 m/s 759 mmHg 76%
09:00 +30°C° 0 mm 2 m/s 759 mmHg 68%
10:00 +32°C° 0 mm 1 m/s 759 mmHg 60%
11:00 +34°C° 0 mm 1 m/s 759 mmHg 50%
12:00 +34°C° 0 mm 2 m/s 758 mmHg 52%
13:00 +34°C° 0 mm 3 m/s 757 mmHg 54%
14:00 +34°C° 0 mm 4 m/s 756 mmHg 56%
15:00 +33°C° 0 mm 4 m/s 756 mmHg 60%
16:00 +30°C° 0 mm 4 m/s 756 mmHg 65%
17:00 +29°C° 0 mm 4 m/s 756 mmHg 69%
18:00 +28°C° 0 mm 3 m/s 757 mmHg 73%
19:00 +27°C° 0 mm 3 m/s 758 mmHg 77%
20:00 +26°C° 0 mm 2 m/s 758 mmHg 81%
21:00 +26°C° 0 mm 2 m/s 758 mmHg 81%
22:00 +26°C° 0 mm 2 m/s 758 mmHg 82%
23:00 +25°C° 0 mm 2 m/s 758 mmHg 83%

Mâine, 21 Ianuarie, Joi

Timp Temperatura Precipitaţii Vânt Presiune Umiditate
00:00 +25°C° 0 mm 2 m/s 758 mmHg 84%
01:00 +25°C° 0 mm 2 m/s 757 mmHg 84%
02:00 +25°C° 0 mm 1 m/s 757 mmHg 85%
03:00 +25°C° 0.1 mm 1 m/s 757 mmHg 86%
04:00 +25°C° 0.1 mm 2 m/s 757 mmHg 87%
05:00 +25°C° 0.1 mm 2 m/s 757 mmHg 88%
06:00 +26°C° 0 mm 2 m/s 757 mmHg 84%
07:00 +27°C° 0 mm 1 m/s 758 mmHg 79%
08:00 +28°C° 0 mm 1 m/s 758 mmHg 75%
09:00 +31°C° 0 mm 1 m/s 758 mmHg 68%
10:00 +33°C° 0 mm 1 m/s 758 mmHg 61%
11:00 +35°C° 0 mm 1 m/s 758 mmHg 54%
12:00 +35°C° 0 mm 2 m/s 757 mmHg 57%
13:00 +34°C° 0 mm 3 m/s 756 mmHg 60%
14:00 +33°C° 0 mm 4 m/s 756 mmHg 63%
15:00 +32°C° 0.2 mm 4 m/s 756 mmHg 69%
16:00 +32°C° 0.2 mm 4 m/s 756 mmHg 75%
17:00 +30°C° 0.2 mm 3 m/s 756 mmHg 81%
18:00 +29°C° 0.2 mm 3 m/s 756 mmHg 84%
19:00 +28°C° 0.2 mm 2 m/s 757 mmHg 88%
20:00 +27°C° 0.2 mm 2 m/s 757 mmHg 91%
21:00 +27°C° 0.1 mm 2 m/s 757 mmHg 92%
22:00 +26°C° 0.1 mm 2 m/s 757 mmHg 93%
23:00 +26°C° 0.1 mm 2 m/s 757 mmHg 94%

Poimâine, 22 Ianuarie, Vineri

Timp Temperatura Precipitaţii Vânt Presiune Umiditate
00:00 +26°C° 0.2 mm 2 m/s 757 mmHg 94%
01:00 +26°C° 0.2 mm 2 m/s 757 mmHg 95%
02:00 +26°C° 0.2 mm 2 m/s 756 mmHg 95%
03:00 +25°C° 0.1 mm 2 m/s 757 mmHg 95%
04:00 +25°C° 0.1 mm 2 m/s 757 mmHg 95%
05:00 +25°C° 0.1 mm 2 m/s 757 mmHg 96%
06:00 +26°C° 0.3 mm 2 m/s 757 mmHg 93%
07:00 +27°C° 0.3 mm 2 m/s 758 mmHg 90%
08:00 +28°C° 0.3 mm 2 m/s 759 mmHg 87%
09:00 +30°C° 0.1 mm 1 m/s 758 mmHg 79%
10:00 +32°C° 0.1 mm 1 m/s 758 mmHg 70%
11:00 +32°C° 0.1 mm 0 m/s 758 mmHg 61%
12:00 +33°C° 0.1 mm 1 m/s 757 mmHg 62%
13:00 +34°C° 0.1 mm 2 m/s 757 mmHg 63%
14:00 +33°C° 0.1 mm 3 m/s 756 mmHg 64%
15:00 +31°C° 0.2 mm 3 m/s 756 mmHg 70%
16:00 +30°C° 0.2 mm 3 m/s 755 mmHg 75%
17:00 +30°C° 0.2 mm 3 m/s 755 mmHg 81%
18:00 +29°C° 0.4 mm 2 m/s 756 mmHg 84%
19:00 +28°C° 0.4 mm 2 m/s 756 mmHg 87%
20:00 +27°C° 0.4 mm 1 m/s 757 mmHg 90%
21:00 +26°C° 0.3 mm 1 m/s 757 mmHg 91%
22:00 +26°C° 0.3 mm 1 m/s 757 mmHg 91%
23:00 +26°C° 0.3 mm 1 m/s 757 mmHg 92%

23 Ianuarie, Sâmbătă

Timp Temperatura Precipitaţii Vânt Presiune Umiditate
00:00 +26°C° 0.2 mm 1 m/s 757 mmHg 93%
01:00 +26°C° 0.2 mm 1 m/s 757 mmHg 93%
02:00 +25°C° 0.2 mm 1 m/s 756 mmHg 94%
03:00 +25°C° 0.1 mm 1 m/s 756 mmHg 94%
04:00 +25°C° 0.1 mm 2 m/s 757 mmHg 94%
05:00 +25°C° 0.1 mm 2 m/s 757 mmHg 95%
06:00 +26°C° 0.1 mm 2 m/s 757 mmHg 93%
07:00 +26°C° 0.1 mm 2 m/s 758 mmHg 91%
08:00 +27°C° 0.1 mm 2 m/s 758 mmHg 88%
09:00 +30°C° 0 mm 1 m/s 758 mmHg 77%
10:00 +32°C° 0 mm 1 m/s 758 mmHg 65%
11:00 +33°C° 0 mm 0 m/s 758 mmHg 54%
12:00 +35°C° 0 mm 1 m/s 758 mmHg 54%
13:00 +35°C° 0 mm 2 m/s 757 mmHg 54%
14:00 +35°C° 0 mm 3 m/s 756 mmHg 54%
15:00 +33°C° 0 mm 4 m/s 756 mmHg 61%
16:00 +32°C° 0 mm 4 m/s 756 mmHg 67%
17:00 +30°C° 0 mm 4 m/s 756 mmHg 74%
18:00 +29°C° 0.1 mm 3 m/s 756 mmHg 79%
19:00 +28°C° 0.1 mm 2 m/s 757 mmHg 84%
20:00 +27°C° 0.1 mm 2 m/s 757 mmHg 89%
21:00 +26°C° 0.1 mm 1 m/s 757 mmHg 90%
22:00 +26°C° 0.1 mm 1 m/s 757 mmHg 91%
23:00 +26°C° 0.1 mm 1 m/s 757 mmHg 92%

24 Ianuarie, Duminică

Timp Temperatura Precipitaţii Vânt Presiune Umiditate
00:00 +25°C° 0 mm 1 m/s 757 mmHg 93%
01:00 +25°C° 0 mm 2 m/s 757 mmHg 94%
02:00 +25°C° 0 mm 2 m/s 756 mmHg 94%
03:00 +24°C° 0 mm 2 m/s 756 mmHg 94%
04:00 +24°C° 0 mm 2 m/s 757 mmHg 94%
05:00 +24°C° 0 mm 2 m/s 757 mmHg 94%
06:00 +25°C° 0 mm 2 m/s 757 mmHg 91%
07:00 +25°C° 0 mm 2 m/s 758 mmHg 87%
08:00 +26°C° 0 mm 2 m/s 759 mmHg 84%
09:00 +29°C° 0 mm 2 m/s 759 mmHg 72%
10:00 +32°C° 0 mm 1 m/s 758 mmHg 60%
11:00 +33°C° 0 mm 0 m/s 758 mmHg 48%
12:00 +34°C° 0 mm 1 m/s 758 mmHg 48%
13:00 +35°C° 0 mm 2 m/s 757 mmHg 47%
14:00 +35°C° 0 mm 4 m/s 756 mmHg 47%
15:00 +33°C° 0 mm 4 m/s 756 mmHg 56%
16:00 +32°C° 0 mm 4 m/s 756 mmHg 64%
17:00 +30°C° 0 mm 4 m/s 756 mmHg 73%
18:00 +29°C° 0 mm 3 m/s 757 mmHg 77%
19:00 +27°C° 0 mm 2 m/s 757 mmHg 82%
20:00 +26°C° 0 mm 2 m/s 758 mmHg 87%
21:00 +26°C° 0.1 mm 1 m/s 758 mmHg 88%
22:00 +26°C° 0.1 mm 1 m/s 758 mmHg 89%
23:00 +25°C° 0.1 mm 1 m/s 758 mmHg 91%

25 Ianuarie, Luni

Timp Temperatura Precipitaţii Vânt Presiune Umiditate
00:00 +25°C° 0.1 mm 1 m/s 758 mmHg 92%
01:00 +25°C° 0.1 mm 1 m/s 758 mmHg 93%
02:00 +25°C° 0.1 mm 1 m/s 757 mmHg 94%
03:00 +24°C° 0.1 mm 2 m/s 757 mmHg 93%
04:00 +24°C° 0.1 mm 2 m/s 757 mmHg 92%
05:00 +24°C° 0.1 mm 3 m/s 757 mmHg 92%
06:00 +24°C° 0 mm 3 m/s 758 mmHg 89%
07:00 +25°C° 0 mm 2 m/s 758 mmHg 86%
08:00 +26°C° 0 mm 2 m/s 759 mmHg 83%
09:00 +28°C° 0 mm 2 m/s 759 mmHg 72%
10:00 +31°C° 0 mm 1 m/s 759 mmHg 62%
11:00 +32°C° 0 mm 0 m/s 759 mmHg 52%
12:00 +34°C° 0 mm 1 m/s 758 mmHg 51%
13:00 +35°C° 0 mm 2 m/s 757 mmHg 51%
14:00 +34°C° 0 mm 3 m/s 757 mmHg 50%
15:00 +33°C° 0 mm 3 m/s 757 mmHg 57%
16:00 +30°C° 0 mm 4 m/s 757 mmHg 64%
17:00 +29°C° 0 mm 4 m/s 756 mmHg 71%
18:00 +28°C° 0 mm 3 m/s 757 mmHg 75%
19:00 +27°C° 0 mm 2 m/s 758 mmHg 80%
20:00 +26°C° 0 mm 1 m/s 758 mmHg 84%
21:00 +26°C° 0 mm 1 m/s 758 mmHg 86%
22:00 +25°C° 0 mm 1 m/s 758 mmHg 87%
23:00 +25°C° 0 mm 1 m/s 758 mmHg 89%
Arată mai mult

Formular de consimțământ

Meteoprog și furnizorii noștri de servicii pot stoca și accesa date personale, precum cookies, identificatori de dispozitiv sau alte tehnologii similare pe dispozitivul dumneavoastră și procesa astfel de date pentru a personaliza conținutul și reclamele, dar și pentru a oferi caracteristici de social media și pentru a analiza traficul.

  • Stocarea și/sau accesarea informațiilor pe dispozitivul dumneavoastră

    Cookies, identificatori de dispozitiv sau alte informații pot fi stocate sau accesate pe dispozitiv în scopurile indicate mai sus.

  • Reclame și conținut personalizat, evaluarea reclamelor și a conținutului, informații despre audiențe și dezvoltarea produselor

    Reclamele și conținutul pot fi personalizate pe baza unui profil. Pot fi adăugate date suplimentare pentru a personaliza mai bine reclamele și conținutul. Performanța reclamelor și conținutului poate fi măsurată. Pot fi obținute informații despre utilizatorii care au văzut reclamele și conținutul. Aceste date pot fi utilizate pentru a dezvolta sau îmbunătăți experiența utilizatorilor, sistemele și software-ul.

Dând clic pe ‘Sunt de acord’, permiteți utilizarea cookie-urilor menționate, a identificatorilor de dispozitiv, balizelor web sau altor tehnologii similare. Setările pot fi modificate din browser-ul dispozitivului dumneavoastră.

În anumite scopuri, interesele legitime pot prima asupra consimțământului. Puteți citi mai multe informații în acest sens în Politica privind Confidențialitatea Datelor și Cookie.